Погода в Эттен-Леуре

Нидерланды     51°34′00″N   4°38′26″E
темп.,
°C
ветер,
м/с
пор.,
м/с
влажн.,
%
обл.,
%
осадки,
мм/ч
давл.,
гПа
погр.,
м
15 апреля, чт
чт1523:00+2ссв388610 0.0 1031183
02:00+1ссв359282 0.0 1031108
05:00+1с229498 0.0 103132
08:00+2с12895 0.0 103168
11:00+7ссв336713 0.1 10311084
14:00+8всв546195 0.6 10311324
17:00+9св4450100 0.0 10301450
20:00+7с356271 0.1 1029106
16 апреля, пт
пт1623:00+4ссв497896 0.0 1030187
02:00+2св38805 0.0 1030161
05:000ссв368426 0.0 1030113
08:00+2ссв37795 0.0 1030176
11:00+8св46555 0.0 1030945
14:00+11св56456 0.0 10291691
17:00+11св564493 0.0 10271916
20:00+9ссв596397 0.0 1027530
17 апреля, сб
сб1723:00+5ссв511725 0.0 1028299
02:00+3ссв48786 0.0 1028184
05:00+1ссв37845 0.0 1028144
08:00+3ссв37825 0.0 1028171
11:00+9ссв56645 0.0 1027978
14:00+12ссв56465 0.0 10251641
17:00+13ссв554850 0.0 10241688
20:00+10св476649 0.0 1024311
18 апреля, вс
вс1823:00+5ссв397916 0.0 1025204
02:00+5ссв3488100 0.0 102597
05:00+5с2380100 0.0 102487
08:00+6с2275100 0.0 1024114
11:00+8с1167100 0.0 1025279
14:00+10ссз2256100 0.0 1024635
17:00+12с225286 0.0 1023949
20:00+10сз3368100 0.0 102488
19 апреля, пн
пн1923:00+8с357897 0.0 1024136
02:00+8ссв2485100 0.0 1024129
05:00+7ссв2386100 0.0 102381
08:00+7с2390100 0.0 1022128
11:00+10св23749 0.0 1022485
14:00+14св335288 0.1 10201653
17:00+14св325696 0.3 10201217
20:00+12св337138 0.3 101960